Home   Weather   Odessa   Past weeks

Flag for USA Past Weather in Odessa, Texas, USA — Yesterday and Last 2 Weeks

Now
28 °F

Overcast.


Feels Like: 22 °F
Forecast: 22 / 44 °F
Wind: 6 mph from Southeast

Location: Odessa-Schlemeyer Field

Current Time: Dec 8, 2016 at 11:49:10 pm

Latest Report: Dec 8, 2016 at 10:53 pm


Visibility: 10 mi

Pressure: 30.62 "Hg (27.40 "Hg at 882m altitude)

Humidity: 72%

Dew Point: 20 °F

Location of OdessaLocation

Past Weather in Odessa — Graph

°F

Odessa Temperature Yesterday

Maximum temperature yesterday: 48 °F (at 12:53 pm)
Minimum temperature yesterday: 36 °F (at 12:53 am)
Average temperature yesterday: 41 °F

High & Low Weather Summary for the Past Weeks

 TemperatureHumidityPressure
High73 °F (Nov 24, 2:53 pm)93% (Dec 2, 6:53 pm)30.63 "Hg (Dec 2, 6:53 pm)
Low27 °F (Dec 8, 7:01 am)21% (Nov 28, 3:53 pm)29.48 "Hg (Nov 28, 5:53 pm)
Average48 °F64%29.99 "Hg
* Reported Nov 23 9:53 pm — Dec 8 9:53 pm, Odessa, Weather by CustomWeather, © 2016

Note: Actual official high and low records may vary slightly from our data, if they occured in-between our weather recording intervals... More about our weather records

Advertising

Odessa Weather History for the Previous 24 Hours

Scroll right to see more
 ConditionsComfort  
Time TempWeatherWind HumidityBarometerVisibility
9:53 pm
Thu, Dec 8
27 °FPassing clouds.5 mph78%30.62 "Hg10 mi
8:53 pm27 °FPassing clouds.6 mph75%30.63 "Hg10 mi
7:53 pm28 °FOvercast.6 mph72%30.63 "Hg10 mi
6:53 pm28 °FOvercast.6 mph75%30.61 "Hg10 mi
5:53 pm28 °FPartly cloudy.7 mph72%30.59 "Hg10 mi
4:53 pm29 °FOvercast.12 mph72%30.58 "Hg10 mi
3:53 pm29 °FMostly cloudy.12 mph72%30.58 "Hg10 mi
2:53 pm29 °FOvercast.13 mph72%30.56 "Hg10 mi
2:01 pm28 °FOvercast.12 mph75%30.55 "Hg10 mi
1:53 pm28 °FOvercast.12 mph75%30.57 "Hg10 mi
12:53 pm28 °FOvercast.15 mph75%30.58 "Hg9 mi
12:00 pm28 °FLight snow. Mostly cloudy.14 mph78%30.58 "Hg3 mi
10:53 am29 °FLight snow. Mostly cloudy.18 mph72%30.60 "Hg5 mi
9:53 am27 °FMostly cloudy.18 mph81%30.59 "Hg5 mi
8:53 am27 °FLight snow. Cloudy.14 mph81%30.57 "Hg2 mi
7:53 am27 °FLight snow. More clouds than sun.14 mph81%30.55 "Hg1 mi
7:01 am27 °FLight snow. Overcast.18 mph81%30.51 "Hg2 mi
5:53 am28 °FLight snow. Overcast.20 mph81%30.48 "Hg2 mi
4:53 am29 °FLight snow. Low clouds.18 mph82%30.45 "Hg2 mi
3:53 am32 °FOvercast.22 mph66%30.43 "Hg10 mi
2:53 am33 °FOvercast.17 mph63%30.41 "Hg10 mi
1:53 am34 °FOvercast.21 mph67%30.35 "Hg10 mi
12:53 am36 °FOvercast.22 mph73%30.32 "Hg10 mi
11:53 pm
Wed, Dec 7
37 °FOvercast.24 mph76%30.31 "Hg10 mi
Weather by CustomWeather, © 2016

See weather overviewHow to use our weather pages